Change the Weather History Date:

Saturday, September 21, 2013

  Actual Average Record
Temperature  
Mean Temperature 57 °F -  
Max Temperature 65 °F 65 °F - ()
Min Temperature 50 °F 45 °F - ()
Degree Days  
Heating Degree Days 8    
Growing Degree Days 7 (Base 50)    
Moisture  
Dew Point 48 °F    
Average Humidity 73    
Maximum Humidity 94    
Minimum Humidity 46    
Precipitation  
Precipitation 0.00 in 0.04 in - ()
Sea Level Pressure  
Sea Level Pressure 30.07 in    
Wind  
Wind Speed 4 mph ()    
Max Wind Speed 9 mph    
Max Gust Speed -    
Visibility 6.1 miles    
Events Rain    
T = Trace of Precipitation, MM = Missing Value Source: Averaged Metar Reports

Daily Weather History Graph

Daily Weather History Graph

Search for Another Location

Airport or City:

Trip Planner

Search our weather history database for the weather conditions in past years. The results will help you decide how hot, cold, wet, or windy it might be!

Date:

Astronomy

Sep. 21, 2013 Rise Set
Actual Time 6:18 AM CEST 6:33 PM CEST
Civil Twilight 5:48 AM CEST 7:04 PM CEST
Nautical Twilight 5:11 AM CEST 7:40 PM CEST
Astronomical Twilight 4:34 AM CEST 8:17 PM CEST
Moon 7:19 PM CEST (9/21) 8:29 AM CEST (9/21)
Length of Visible Light 13h 15m
Length of Day
12h 14m
Waning Gibbous, 95% of the Moon is Illuminated
Sep 21
Waning Gibbous
Sep 27
Last Quarter
Oct 5
New
Oct 12
First Quarter
Oct 19
Full

Hourly Weather History & Observations

Time (CEST) Temp. Dew Point Humidity Pressure Visibility Wind Dir Wind Speed Gust Speed Precip Events Conditions
12:55 AM 51.8 °F 48.2 °F 88% 30.01 in - WSW 4.6 mph - N/A   Unknown
2:00 AM 53 °F 49 °F 80% 30.02 in - SW 4.5 mph - -  
4:45 AM 51.8 °F 48.2 °F 88% 30.01 in - WSW 3.5 mph - N/A   Clear
5:15 AM 51.8 °F 50.0 °F 94% 30.01 in - WSW 3.5 mph - N/A   Clear
5:45 AM 51.8 °F 48.2 °F 88% 30.01 in 6.2 mi WSW 3.5 mph - N/A   Mostly Cloudy
6:03 AM 51.8 °F 48.2 °F 88% 30.01 in - SW 4.6 mph - N/A   Unknown
6:15 AM 51.8 °F 50.0 °F 94% 30.01 in 6.2 mi WSW 3.5 mph - N/A Rain Light Rain
6:45 AM 51.8 °F 50.0 °F 94% 30.04 in 4.3 mi West 2.3 mph - N/A   Mostly Cloudy
7:00 AM - - N/A% - 6.2 mi West 5.8 mph - N/A   Mostly Cloudy
7:15 AM 51.8 °F 50.0 °F 94% 30.04 in 4.3 mi WNW 3.5 mph - N/A   Mostly Cloudy
7:45 AM 51.8 °F 50.0 °F 94% 30.04 in 4.3 mi WNW 4.6 mph - N/A   Mostly Cloudy
8:00 AM 52 °F 50 °F 92% 30.05 in 4 mi WNW 4.5 mph - -   Partly Cloudy
8:15 AM 53.6 °F 51.8 °F 94% 30.06 in 5.0 mi WNW 5.8 mph - N/A   Mostly Cloudy
8:45 AM 55.4 °F 50.0 °F 82% 30.06 in 5.0 mi WNW 4.6 mph - N/A   Mostly Cloudy
9:15 AM 57.2 °F 50.0 °F 77% 30.06 in 5.0 mi NW 4.6 mph - N/A   Mostly Cloudy
9:45 AM 57.2 °F 48.2 °F 72% 30.06 in 6.2 mi NNW 6.9 mph - N/A   Mostly Cloudy
10:00 AM - - N/A% - 6.2 mi NNW 6.9 mph - N/A   Mostly Cloudy
10:15 AM 59.0 °F 48.2 °F 67% 30.09 in 6.2 mi North 4.6 mph - N/A   Mostly Cloudy
10:45 AM 60.8 °F 48.2 °F 63% 30.09 in 6.2 mi NW 5.8 mph - N/A   Scattered Clouds
11:15 AM 60.8 °F 48.2 °F 63% 30.09 in 6.2 mi North 5.8 mph - N/A   Scattered Clouds
11:45 AM 60.8 °F 48.2 °F 63% 30.09 in 6.2 mi North 4.6 mph - N/A   Mostly Cloudy
12:15 PM 60.8 °F 46.4 °F 59% 30.09 in 6.2 mi NNW 3.5 mph - N/A   Mostly Cloudy
12:45 PM 62.6 °F 46.4 °F 55% 30.09 in 6.2 mi NNE 3.5 mph - N/A   Mostly Cloudy
1:00 PM - - N/A% - 6.2 mi North 6.9 mph - N/A   Mostly Cloudy
1:15 PM 62.6 °F 48.2 °F 59% 30.09 in 6.2 mi North 4.6 mph - N/A   Mostly Cloudy
1:45 PM 62.6 °F 46.4 °F 55% 30.12 in 6.2 mi North 8.1 mph - N/A   Mostly Cloudy
2:00 PM 62 °F 47 °F 46% 30.11 in 16 mi North 6.7 mph - -   Partly Cloudy
2:15 PM 62.6 °F 46.4 °F 55% 30.12 in 6.2 mi NNW 5.8 mph - N/A   Mostly Cloudy
2:45 PM 64.4 °F 46.4 °F 52% 30.12 in 6.2 mi NW 6.9 mph - N/A   Scattered Clouds
3:15 PM 64.4 °F 46.4 °F 52% 30.12 in 6.2 mi NNW 5.8 mph - N/A   Scattered Clouds
3:45 PM 64.4 °F 46.4 °F 52% 30.12 in 6.2 mi North 9.2 mph - N/A   Scattered Clouds
4:15 PM 62.6 °F 46.4 °F 55% 30.12 in 6.2 mi North 9.2 mph - N/A   Scattered Clouds
5:00 PM - - N/A% - - North - - N/A   Unknown
8:00 PM 55 °F 47 °F 66% 30.18 in - NNW 2.2 mph - -